Location: Erdweis
(48.5167°N, 15.3500°E)
Time: 07:02:40
(UTC+00:00)

NOSS 2-2 (C) - Pass Details

Date: 18 September 2020
Orbit: 468 x 1740 km, 63.3° (Epoch: 19 October)

Event Time Altitude Azimuth Distance (km) Brightness Sun altitude
Rises 18:15:37 0° 206° (SSW) 2,506 6.8 -12.5°
Reaches altitude 10° 18:17:42 10° 200° (SSW) 1,623 5.8 -12.8°
Maximum altitude 18:21:04 49° 124° (SE) 638 3.2 -13.3°
Drops below altitude 10° 18:24:49 10° 50° (NE) 1,803 5.6 -13.9°
Sets 18:27:15 0° 45° (NE) 2,827 6.7 -14.3°
